Showing default

MIMAN, 52900

Orbit data source: Space-Track

MIMAN, 52900 is a payload satellite owned by Yonsei U (KR) in SSO that was launched on Tue, 21 Jun 2022 UTC via an NURI launch vehicle from the Naro Space Center, South Korea (NSC). Payload-class satellites include a variety of spacecraft equipped with specific instruments for various scientific and technological missions. These include communications satellites like Starlink; space stations such as the ISS; scientific satellites like the Hubble; Earth observation satellites from companies like Planet Labs, Umbra, and HawkEye 360; GPS; miniature CubeSats for education and research; and military/defense satellites.

Loading next visibility...
Identifier
52900, 2022-065G
Orbit
SSO
Country
Flag of KRKR / SKOR
Related business
Manufacturer
Yonsei U
Mission
Operational Amateur Technology
Bus & Motor
CUBESAT 3U, Unknown motor
Mass
4 kg wet, 4 kg dry
Launch date (UTC)
2022-06-21 (4 years ago)
Launch vehicle
NURI
Launch site
Naro Space Center, South Korea (NSC)
Object type
Payload
Rocket body
Debris
Shape & HBR
Box, 0.2 m
Radar Cross Section
0.039 m², Medium (>0.1 m² and < 1m²)

Expand to show TLE details & history
Last TLE update: 2 days ago

TLE from 2 days ago
0 MIMAN
1 52900U 22065G   26171.33376383  .00000375  00000-0  84546-4 0  9990
2 52900  98.2265 313.8001 0008018  25.7705 334.3894 14.61846294210900
Epoch: 2026-06-20T08:00Z
TLE epoch observation values (Epoch: 2026-06-20T08:00:37.194Z)
Latitude
-0.00005°
Longitude
-74.90475°
Altitude
685.097 km
Speed
7.517 km/s
True Right ascension
20h 55m 12s
True Declination
0° 00' 00"
Sunlit
Object was in full shadow at epoch
Visualization orbit readout
Latitude
Unknown
Longitude
Unknown
Altitude
Unknown
Speed
Unknown
Apparent Right ascension
Unknown
Apparent Declination
Unknown
Sunlit
N/A
Visualization observer readout
Local Sidereal Time
21:40:05
Azimuth
Unknown
Elevation
Unknown
Doppler factor
Unknown
Orbital elements
Apogee altitude
689.961 km
Perigee altitude
678.636 km
Semi-major axis
7,062.436 km
Eccentricity
0.0008
Inclination
98.2265°
RAAN
313.8001°
Arg. of periapsis
25.7705°
True anomaly
334.34965°
Mean anomaly
334.3894°
Eccentric anomaly
334.36953°
Mean motion
3.65689 °/min
Orbital period
98.44 mins
BSTAR
0.000084546
Loading maneuver chart data...
Computing Atmospheric mass density...
Loading historical data...
Loading historical data...
Loading historical data...
Loading historical data...
Loading historical data...
Loading historical data...
Loading historical data...

Documentation

Showing up to 5 results
|